Theta_e
317 317 316 315 314 313 315 315 314 312 322 323 323 322 325 329 330 329 331 331 332 332 333 331 326 326 325 322 323 321 322 326 328 329 328 328 329 326 326 329 329 329 329 331 337
313 315 317 316 315 314 314 315 316 313 314 321 323 323 323 325 330 330 329 331 332 332 331 328 325 324 322 324 323 321 322 325 324 324 324 324 325 326 327 327 330 330 335 336 337
312 311 314 316 317 315 313 314 315 315 311 316 321 323 322 324 327 329 329 329 331 332 332 329 327 324 326 324 324 323 323 323 323 321 319 321 321 322 326 326 324 330 336 335 336
314 312 311 313 316 316 315 313 314 315 314 310 319 322 322 325 329 327 329 329 329 331 330 326 326 326 325 326 324 327 324 323 323 319 320 321 320 320 322 322 323 324 334 334 333
312 314 312 312 313 316 317 314 313 314 314 313 312 321 322 324 324 326 328 329 330 330 328 325 326 328 326 325 324 325 324 325 324 321 321 321 322 322 320 318 320 328 332 334 333
310 311 314 312 313 313 316 316 313 313 313 314 310 320 321 324 321 325 326 330 330 329 327 326 325 324 325 326 325 324 325 325 324 323 322 323 321 321 320 319 319 322 328 330 333
311 311 312 313 312 313 314 316 315 312 312 314 310 319 321 321 322 323 323 327 329 328 327 326 324 323 323 326 324 325 326 324 324 324 324 322 323 322 319 318 319 318 319 323 328
310 311 311 312 312 312 312 315 315 312 313 312 312 319 320 320 320 323 325 326 326 326 326 323 323 324 324 322 324 326 326 328 325 324 324 324 328 322 319 318 319 317 316 319 321
308 309 310 310 312 311 311 313 315 313 312 312 312 316 319 318 321 321 324 323 323 323 322 322 322 323 325 326 328 327 328 327 326 324 324 323 326 323 321 319 318 316 315 315 318
306 307 308 309 310 311 311 312 314 314 312 313 313 313 315 319 320 321 322 323 323 323 322 323 323 327 325 329 334 330 330 329 328 324 323 325 325 322 321 321 319 320 318 318 317
306 306 306 306 307 309 311 314 315 314 313 313 313 312 315 318 319 322 322 322 322 324 327 325 327 328 326 327 326 324 323 324 322 323 324 323 322 322 321 320 319 318 319 320 321
305 306 306 306 305 307 311 313 314 312 314 312 311 311 316 317 320 320 321 323 324 325 324 326 326 325 323 323 325 326 327 325 322 324 325 324 325 322 321 320 319 319 318 316 318
304 304 305 306 304 306 310 312 313 311 313 313 312 313 311 316 317 319 320 322 323 323 324 325 321 321 324 324 325 324 326 324 324 323 324 326 326 324 321 320 320 320 320 320 317
304 303 304 304 307 307 310 310 313 312 315 315 314 313 313 314 316 317 320 320 322 324 321 325 320 323 324 324 323 324 321 322 324 324 326 324 327 322 319 318 317 319 320 320 320
303 304 304 304 305 307 307 309 312 311 317 314 313 312 314 315 315 317 319 320 323 323 322 324 323 323 324 323 322 323 320 321 323 325 325 323 323 319 318 319 318 316 317 318 319
303 303 304 305 305 305 306 309 312 314 316 316 314 315 316 315 316 317 318 317 318 318 317 319 319 320 322 322 321 321 322 323 325 324 327 322 323 320 318 318 317 317 315 315 313
302 303 304 304 304 305 307 310 314 316 311 315 316 315 314 316 316 317 319 320 321 322 319 318 317 321 321 323 322 323 325 327 327 328 324 320 323 320 317 317 316 317 314 312 310
303 303 302 303 304 305 308 311 314 313 311 312 314 314 315 314 315 316 318 319 316 315 320 322 322 322 320 322 324 325 324 324 326 326 321 317 324 321 317 316 316 315 313 310 309
303 302 302 304 304 305 308 310 312 311 312 314 314 313 314 315 314 316 317 317 316 315 317 319 320 319 320 321 321 324 325 319 318 306 315 317 317 316 316 315 314 313 310 309 309
302 300 301 303 304 305 308 311 310 312 312 312 315 313 313 315 314 315 316 314 316 314 314 316 322 317 321 321 321 322 320 324 323 323 320 316 317 316 317 315 313 312 310 310 308
302 302 301 302 304 306 308 308 307 310 312 312 312 314 313 315 313 315 314 313 313 314 313 315 318 318 315 323 323 323 324 323 322 320 320 317 315 311 313 313 313 311 309 309 308
300 301 301 302 304 302 306 305 307 311 312 312 311 311 311 313 314 315 313 313 313 313 317 316 316 316 319 314 313 318 322 322 325 323 318 316 317 312 312 311 311 310 310 309 309
299 301 302 302 306 305 305 307 309 310 312 313 312 311 310 312 314 312 312 309 314 315 317 315 318 314 318 319 316 314 315 315 320 317 319 317 315 310 311 312 310 312 312 311 313
298 303 299 302 300 306 307 308 310 310 311 311 311 310 311 312 310 313 312 308 313 314 314 314 314 313 316 318 320 320 317 314 314 321 322 321 319 316 313 312 311 312 312 311 311
297 301 300 304 304 305 308 310 309 310 310 309 312 311 311 312 310 310 308 309 312 315 315 316 317 316 314 314 314 315 316 319 318 319 320 318 318 316 314 311 311 312 312 308 305
300 301 299 302 303 305 308 310 310 309 309 309 312 311 311 311 310 310 308 309 311 311 316 314 307 313 310 314 313 314 312 314 318 318 317 316 315 311 310 310 310 310 308 305 305
302 302 301 304 303 308 309 307 308 308 308 308 311 311 309 308 308 307 307 308 308 311 311 310 306 300 300 309 310 311 312 311 311 313 315 315 314 311 310 309 303 303 304 303 302
Wind_Speed
25 28 26 24 23 21 21 19 19 18 13 12 12 12 11 9 10 6 8 8 3 8 14 13 9 6 7 3 1 3 3 2 4 5 2 1 3 4 3 3 2 2 3 5 28
25 26 27 27 24 22 20 20 17 17 17 13 12 11 10 10 11 14 15 9 17 12 6 7 7 10 2 2 1 3 3 6 1 4 3 2 2 4 1 2 1 5 8 22 27
27 26 26 27 27 24 22 20 19 16 17 14 12 10 8 7 5 6 23 23 17 13 15 9 11 3 3 0 3 4 5 3 2 2 5 2 7 3 4 2 6 8 11 14 18
26 26 27 26 27 27 24 22 20 18 15 16 12 11 9 7 8 1 15 21 24 16 5 2 4 2 2 4 5 2 6 4 4 2 3 3 4 7 2 6 3 2 16 14 11
29 28 28 27 26 27 25 23 20 19 14 15 15 12 8 4 7 9 6 16 18 13 13 5 3 2 3 3 4 4 5 5 5 3 3 1 4 3 8 11 5 7 14 11 12
30 30 28 28 27 26 27 24 22 20 18 14 17 15 6 14 9 11 7 12 13 14 11 11 5 2 3 3 2 3 6 6 6 6 3 3 6 2 5 5 3 5 10 10 12
28 29 29 27 27 26 26 25 23 19 18 14 17 17 7 13 4 21 17 14 15 15 4 4 6 2 3 3 6 4 4 4 4 3 4 3 7 8 11 9 10 8 9 10 13
26 26 28 28 27 26 25 25 23 20 17 15 14 15 7 6 20 11 13 10 14 11 10 8 5 4 3 5 6 2 0 3 3 5 6 5 14 6 9 8 12 10 9 9 11
26 25 25 27 26 26 24 23 24 20 16 14 8 7 7 7 12 20 16 15 11 11 9 8 6 2 1 3 1 3 4 6 6 5 6 10 11 8 11 8 9 10 10 9 10
27 28 26 23 25 25 24 21 22 17 15 10 7 5 7 5 7 20 18 22 6 10 4 2 2 4 3 5 13 8 4 2 3 7 10 17 17 7 8 8 8 8 8 8 9
30 29 29 27 25 24 22 12 7 6 15 8 10 5 1 13 12 16 26 16 7 7 11 6 6 16 16 13 4 5 3 3 1 4 10 6 8 8 8 8 9 9 9 9 10
32 31 30 29 28 26 25 11 14 9 6 15 6 17 5 13 4 7 24 12 9 15 11 6 19 17 3 9 9 5 5 5 6 3 2 8 20 16 13 11 9 8 9 9 9
34 34 32 30 29 25 27 34 20 23 6 10 13 7 6 8 6 10 19 9 10 15 15 16 13 11 13 9 14 12 18 13 8 3 1 8 19 16 13 11 14 17 18 14 12
33 35 34 32 24 28 26 36 33 15 8 7 16 7 8 5 4 7 26 8 7 16 11 14 16 14 12 15 14 17 15 11 9 4 4 4 8 7 6 13 14 15 18 20 19
32 33 35 36 18 23 33 31 35 7 10 18 12 11 11 10 7 7 9 6 14 10 7 11 14 17 16 22 18 11 11 14 7 6 1 6 3 7 7 7 17 10 12 13 15
33 34 34 34 29 34 30 30 22 11 8 14 14 17 14 11 4 4 5 3 1 4 7 11 8 17 18 10 22 6 8 7 4 5 7 12 9 8 7 9 4 4 7 6 8
34 35 36 33 27 29 35 18 14 15 6 8 16 22 29 15 16 7 11 13 6 5 8 14 17 3 10 9 17 7 9 5 5 6 6 7 9 17 9 6 4 6 8 8 8
33 34 35 35 34 33 29 12 20 19 5 1 15 26 22 19 16 7 12 12 10 5 2 7 7 13 9 10 11 18 12 5 6 5 5 9 8 7 11 11 7 7 8 9 9
35 29 24 33 32 34 14 18 17 6 16 15 18 25 11 15 10 13 15 16 9 16 7 6 5 4 3 6 13 13 12 5 5 2 2 5 7 9 10 5 6 9 9 7 8
29 17 27 30 33 22 14 19 8 11 14 18 11 21 22 24 9 20 17 10 9 11 5 5 3 3 11 1 2 9 10 6 3 6 5 5 5 5 4 7 8 10 9 6 6
22 6 16 30 32 9 10 12 3 19 17 18 13 14 15 24 20 22 18 5 16 14 7 10 4 1 4 6 15 6 10 7 6 3 7 3 5 5 9 10 11 9 9 9 7
4 5 21 33 11 5 10 8 5 15 17 12 8 3 15 26 17 15 7 7 11 17 11 10 4 5 5 6 4 8 6 7 9 8 3 3 4 5 9 10 7 7 7 5 4
6 3 25 33 9 7 7 7 10 12 12 8 8 8 12 17 10 6 5 2 18 16 19 11 5 3 2 3 8 5 3 6 3 3 4 4 5 1 9 6 7 9 5 5 5
3 6 3 6 2 11 14 13 6 14 12 5 4 14 16 19 4 9 7 3 18 14 12 11 5 5 10 4 4 3 11 15 5 1 4 4 3 5 3 7 5 5 4 5 2
2 5 5 6 9 6 9 17 9 7 4 11 8 20 23 9 4 7 5 5 5 11 7 7 7 3 3 8 5 6 5 9 9 8 2 8 10 15 14 6 4 4 1 4 7
1 1 2 4 7 15 5 17 21 4 6 3 12 21 20 18 10 17 10 5 6 5 8 6 4 5 2 4 1 3 6 8 15 14 14 13 18 7 3 4 7 9 9 10 13
2 3 4 5 4 14 12 5 15 20 3 5 23 19 11 8 13 12 8 6 9 9 6 7 5 3 4 1 5 3 16 12 4 4 12 10 14 6 5 6 10 10 11 12 11
Wind_Direction
237 236 235 238 239 240 239 243 245 242 245 243 243 246 254 265 268 254 236 226 219 301 284 301 314 298 301 276 222 20 56 272 278 346 11 148 108 351 156 109 42 46 119 172 157
241 238 236 235 237 237 237 238 241 240 239 243 241 245 250 260 270 240 231 229 237 263 330 338 327 346 306 259 263 110 144 224 28 7 30 350 108 157 93 136 191 67 77 129 150
244 241 237 235 234 236 236 236 235 238 234 236 239 242 244 247 302 244 250 233 231 245 251 299 307 316 224 22 239 192 204 270 3 87 25 12 10 342 159 278 213 195 167 156 161
238 241 238 235 233 233 234 234 234 233 233 226 231 227 227 182 229 105 215 221 223 225 218 268 274 282 237 219 233 245 261 245 275 94 56 337 304 342 260 232 291 227 173 158 171
235 236 235 234 231 231 231 231 232 228 229 223 219 209 193 221 238 266 10 206 203 196 189 189 205 213 219 268 327 211 238 273 291 187 170 295 292 259 294 288 280 110 157 175 181
238 234 232 230 230 229 230 225 227 227 227 224 214 203 194 233 234 224 240 174 196 202 209 205 201 166 272 271 151 316 263 262 289 260 237 214 257 93 279 275 287 176 186 181 190
234 233 231 229 228 225 226 224 221 224 219 219 209 208 229 232 299 218 227 207 190 198 209 208 160 113 340 328 335 251 282 312 275 245 230 144 286 231 244 255 270 216 209 196 207
227 227 225 228 227 227 224 223 217 217 212 212 208 201 238 225 227 224 194 178 183 187 196 135 119 110 73 312 334 304 131 243 219 249 266 151 261 229 259 241 251 249 220 222 218
226 225 224 223 225 223 224 222 214 210 206 197 187 181 244 212 223 211 181 148 122 126 122 130 94 137 124 135 272 225 224 234 285 252 263 193 255 237 241 243 251 244 235 222 232
225 227 226 222 221 222 217 216 214 198 192 179 186 95 249 210 166 206 191 163 140 123 68 116 132 141 186 163 230 213 207 339 321 352 317 253 249 263 271 270 248 251 236 237 236
222 221 224 224 222 218 212 186 194 176 183 186 173 217 151 164 188 185 190 178 123 175 193 185 189 218 205 200 213 130 131 197 266 324 339 344 299 285 276 273 281 272 252 242 246
218 216 217 217 222 218 208 206 216 151 178 223 211 214 128 178 145 189 180 181 191 205 191 188 222 222 113 185 183 208 187 234 303 268 1 329 308 301 282 272 250 258 272 253 262
215 213 212 211 216 211 207 212 183 156 164 191 218 213 175 184 199 190 178 201 191 200 198 210 230 165 187 198 208 216 225 220 240 11 196 289 278 258 261 251 260 251 250 248 238
214 213 209 207 199 205 213 212 204 206 191 173 193 232 171 130 256 165 188 181 217 210 194 219 222 180 186 197 183 223 216 211 201 162 232 157 291 240 247 259 256 262 247 247 248
211 209 207 197 193 191 212 203 197 123 235 164 173 174 147 169 137 209 173 179 208 190 190 203 193 200 198 204 179 225 156 189 168 178 259 204 246 278 232 256 254 249 239 244 239
212 208 204 200 203 208 199 197 181 217 212 172 153 167 151 189 195 108 132 85 107 199 233 273 310 194 205 183 179 143 137 166 169 215 217 220 194 264 206 224 298 305 79 90 83
208 205 199 196 204 199 190 182 207 199 146 150 167 165 176 172 187 147 175 187 174 188 200 217 245 290 161 153 183 202 153 181 206 205 229 178 179 250 283 263 194 167 111 101 93
206 197 204 204 203 193 182 209 225 193 165 230 165 175 180 152 195 154 154 194 180 147 123 205 192 198 177 196 190 194 201 160 198 200 235 133 222 253 238 259 156 125 126 111 83
193 190 195 202 197 192 195 208 216 170 156 166 155 172 173 178 154 174 196 199 178 188 193 186 233 281 241 194 157 182 209 215 104 51 61 208 270 302 269 173 119 106 89 93 88
174 173 205 197 196 188 204 230 227 135 149 150 152 179 184 179 143 181 180 190 164 166 137 174 310 339 208 342 264 191 158 193 186 183 219 258 252 224 94 98 112 110 114 123 104
168 176 182 185 188 189 221 223 154 183 167 162 163 175 192 174 181 181 185 179 173 162 153 154 189 118 62 213 223 211 197 205 170 166 206 174 258 249 190 144 127 130 134 144 130
125 183 170 173 196 177 204 157 206 183 175 213 157 110 173 182 178 171 168 169 155 152 184 180 175 202 190 200 268 329 201 239 193 186 236 159 222 113 131 144 131 101 114 129 137
144 163 167 170 201 188 203 186 187 171 181 187 166 172 167 164 172 133 157 359 161 160 165 156 189 149 212 142 175 192 288 334 161 65 196 140 230 347 100 108 104 109 125 162 179
125 170 183 175 221 166 168 179 175 160 167 203 155 128 126 154 60 150 145 94 171 166 149 149 173 202 225 154 135 174 203 202 281 67 165 227 4 285 130 99 97 123 183 203 235
121 198 208 152 160 168 155 173 172 140 165 188 148 152 138 139 101 136 118 116 110 153 141 162 201 187 133 133 143 145 158 194 196 196 182 213 211 242 289 84 132 184 14 33 4
132 203 53 109 133 168 146 171 158 101 129 175 143 150 155 159 172 163 139 150 157 174 157 171 220 160 273 128 184 156 218 199 203 228 233 252 265 171 102 20 12 354 9 40 45
206 289 86 96 149 161 175 172 156 137 138 160 148 142 126 111 105 100 87 93 127 152 156 143 127 94 235 263 140 349 223 219 221 203 216 221 254 78 47 57 52 55 43 42 27